Regional Weather Roundup
Issued by NWS

Home | Current Version | Previous Version | Graphics & Text | Print | Product List | Glossary On
Versions: 1 2 3 4 5 6 7 8 9 10 11 12 13 14 15 16 17 18 19 20 21 22 23 24 25 26 27 28 29 30 31 32 33 34 35 36 37 38 39 40 41 42 43 44 45 46 47 48 49 50
000
ASUS45 KBOU 021907
RWRCO

WEATHER ROUNDUP FOR COLORADO
NATIONAL WEATHER SERVICE DENVER/BOULDER CO
100 PM MDT TUE SEP 02 2014

NOTE: "FAIR" INDICATES FEW OR NO CLOUDS BELOW 12000 FEET WITH NO
SIGNIFICANT WEATHER AND/OR OBSTRUCTIONS TO VISIBILITY.

COZ001>005-013-030-031-022000-
...NORTHWEST COLORADO...

CITY           SKY/WX    TMP DP  RH WIND       PRES   REMARKS
CRAIG          SUNNY     75  43  31 NW5       30.15F
HAYDEN         SUNNY     72  34  25 NW8       30.17F
MEEKER         SUNNY     79  36  21 CALM      30.15F
MOUNT WERNER   NOT AVBL
STEAMBOAT SPGS SUNNY     70  34  26 S6        30.20F
WALDEN         SUNNY     70  28  21 SW18G24   30.26F
$$

COZ006>008-011-022000-
...WEST CENTRAL VALLEYS...

CITY           SKY/WX    TMP DP  RH WIND       PRES   REMARKS
GRAND JUNCTION SUNNY     80  40  23 SW5       30.06F
MONTROSE       SUNNY     82  40  22 N6        30.14F
EAGLE          MOSUNNY   79  36  21 W6        30.18F
RIFLE          SUNNY     76  41  28 CALM      30.11F
DELTA          SUNNY     84  32  15 S3        30.09F
NUCLA          SUNNY     82  34  17 NW3       30.18F
$$

COZ017>023-064>068-022000-
...SOUTHWEST COLORADO...

CITY           SKY/WX    TMP DP  RH WIND       PRES   REMARKS
DURANGO        SUNNY     84  30  14 SW14      30.21F
CORTEZ         SUNNY     86  35  16 SW6       30.15F
PAGOSA SPRINGS SUNNY     80  22  12 SW10G16   30.28F
TELLURIDE      MOSUNNY   72  30  21 W9        30.38S
WOLF CREEK PAS SUNNY     55  32  41 SW16G26   30.60F
$$

COZ009-010-012-014-032>034-037-058>063-022000-
...CENTRAL COLORADO...

CITY           SKY/WX    TMP DP  RH WIND       PRES   REMARKS
ASPEN          MOSUNNY   77  31  18 N9G18     30.25F
BUENA VISTA    SUNNY     79  23  12 SW16G36   30.25F
COPPER MTN     MOSUNNY   59  28  31 W25G33    30.56F
BERTHOUD PASS  FAIR      48  46  93 NW24G39   30.58S
COTTONWOOD PAS SUNNY     73  18  12 NW8       30.40F
GUNNISON       SUNNY     72  36  26 SW3       30.29F
KREMMLING      MOSUNNY   77  27  15 NW5       30.22F
LEADVILLE      SUNNY     65  26  23 W13       30.40F
SALIDA         SUNNY     83  27  13 W18       30.29F
SUNLIGHT       SUNNY     66  37  34 CALM      30.50F
WILKERSON PASS NOT AVBL
$$

COZ069>075-022000-
...SAN LUIS VALLEY/SANGRE DE CRISTO MOUNTAINS...

CITY           SKY/WX    TMP DP  RH WIND       PRES   REMARKS
ALAMOSA        SUNNY     79  30  16 NE9       30.25F
LA VETA PASS   NOT AVBL
SAGUACHE         N/A     77  32  19 S9        30.29
$$

COZ035-036-038>040-022000-
...NORTHERN COLORADO FRONT RANGE...

CITY           SKY/WX    TMP DP  RH WIND       PRES   REMARKS
DENVER INTL AP MOSUNNY   80  49  33 S6        30.06F
DMNS CITY PARK   N/A     84  42  22 N6        30.04F
AURORA         MOSUNNY   81  39  22 VRB2      30.07F
FRONT RANGE AP MOSUNNY   82  48  30 N3        30.06F
ERIE MUNI ARPT SUNNY     79  44  28 E8        30.04F
BOULDER MUN AP SUNNY     75  46  35 CALM      30.05F
CENTENNIAL     MOSUNNY   82  31  15 CALM      30.08F
BROOMFIELD     MOSUNNY   79  41  25 SE5       30.09F
FORT COLLINS   SUNNY     73  48  40 S3        30.07F
LONGMONT       SUNNY     79  47  32 NE6       30.06F
$$

COZ041-046-047-076>085-087-088-022000-
...PIKES PEAK/PALMER DIVIDE AND SOUTHERN FOOTHILLS...

CITY           SKY/WX    TMP DP  RH WIND       PRES   REMARKS
COLO. SPRINGS  MOSUNNY   75  53  46 S13G22    30.15F
A. F. ACADEMY  SUNNY     72  54  52 SE15      30.16F
ELLICOTT       NOT AVBL
FALCON         SUNNY     72  55  55 S13       30.20F
FORT CARSON    SUNNY     77  54  44 SE13      30.12F
LIMON          MOSUNNY   74  58  57 S14G26    30.12F
MONUMENT HILL  SUNNY     73  54  49 S16       30.17F
TRINIDAD       SUNNY     84  46  26 E12       30.11F
$$

COZ042>045-048>051-090-091-022000-
...NORTHEAST COLORADO...

CITY           SKY/WX    TMP DP  RH WIND       PRES   REMARKS
GREELEY ARPT   SUNNY     73  48  40 NE3       30.05F
AKRON          MOSUNNY   79  58  48 SW15G31   30.05F
BURLINGTON     SUNNY     81  55  40 S17       30.07F
WRAY             N/A     82  57  42 S10G17    30.03F
STERLING       SUNNY     79  59  50 SW8G17    30.01F
HOLYOKE        MOSUNNY   81  63  54 S16       30.01F
FORT MORGAN    SUNNY     77  53  44 S6        30.04F
$$

COZ086-089-092>099-022000-
...SOUTHEAST COLORADO...

CITY           SKY/WX    TMP DP  RH WIND       PRES   REMARKS
PUEBLO         SUNNY     81  58  45 SE10G20   30.05F
LA JUNTA       SUNNY     82  58  43 SE8G20    30.05F
LAMAR          SUNNY     84  57  39 S8G17     30.02F
SPRINGFIELD      N/A     81  59  47 SE10G17   30.07F
$$



USA.gov is the U.S. government's official web portal to all federal, state and local government web resources and services.